FENGYUN 1C DEB, 35174

Orbit data source: Space-Track

FENGYUN 1C DEB, 35174 is space debris in SSO originally from a launch on Mon, 10 May 1999 UTC launched from the Taiyaun Space Center, China (TSC). Fengyun 1C debris stems from the Chinese weather satellite Fengyun-1C, which was intentionally destroyed by a Chinese anti-satellite missile in 2007. This event dramatically increased the amount of space debris, with thousands of trackable fragments posing hazards to satellites and human spaceflight. The Fengyun 1C debris cloud has become a focal point in discussions about space sustainability and the need for international regulations to prevent the creation of new debris.

Loading next visibility...
Identifier
35174, 1999-025DNE
Orbit
SSO
Country
Flag of CNCN / PRC
Related business
Manufacturer
Unknown
Mission
Spacecraft
Bus & Motor
Unknown
Mass
Unknown
Launch date (UTC)
1999-05-10 (27 years ago)
Launch vehicle
Unknown
Launch site
Taiyaun Space Center, China (TSC)
Object type
Payload
Rocket body
Debris
Shape & HBR
Unknown shape, 0.1 m
Radar Cross Section
Small (<0.1 m²)

Expand to show TLE details & history
Last TLE update: 6 days ago

TLE from 6 days ago
0 FENGYUN 1C DEB
1 35174U 99025DNE 26118.26783595  .00044710  00000-0  22974-2 0  9990
2 35174  98.9666 119.2609 0126385  97.2849 264.2761 15.09571741922188
Epoch: 2026-04-28T06:25Z
TLE epoch observation values (Epoch: 2026-04-28T06:25:41.026Z)
Latitude
-0.00001°
Longitude
166.59437°
Altitude
550.347 km
Speed
7.581 km/s
True Right ascension
07h 57m 02s
True Declination
0° 00' 00"
Sunlit
Object was in daylight at epoch
Visualization orbit readout
Latitude
Unknown
Longitude
Unknown
Altitude
Unknown
Speed
Unknown
Apparent Right ascension
Unknown
Apparent Declination
Unknown
Sunlit
N/A
Visualization observer readout
Local Sidereal Time
15:49:40
Azimuth
Unknown
Elevation
Unknown
Doppler factor
Unknown
Orbital elements
Apogee altitude
621.926 km
Perigee altitude
447.194 km
Semi-major axis
6,912.697 km
Eccentricity
0.01264
Inclination
98.9666°
RAAN
119.2609°
Arg. of periapsis
97.2849°
True anomaly
262.83747°
Mean anomaly
264.2761°
Eccentric anomaly
263.55654°
Mean motion
3.77635 °/min
Orbital period
95.33 mins
BSTAR
0.0022974
Loading maneuver chart data...
Computing Atmospheric mass density...
Loading historical data...
Loading historical data...
Loading historical data...
Loading historical data...
Loading historical data...
Loading historical data...
Loading historical data...

Documentation

Showing up to 5 results
|